Location: Ida Center
(41.8662°N, 83.5713°W)
Time: 11:03:22
(UTC+00:00)

Cosmos 1515 Rocket - Pass Details

Date: 17 November 2019
Orbit: 605 x 631 km, 82.5° (Epoch: 15 December)

Event Time Altitude Azimuth Distance (km) Brightness Sun altitude
Rises 23:26:37 0° 164° (SSE) 2,888 7.0 -13.9°
Reaches altitude 10° 23:29:00 10° 155° (SSE) 1,983 6.0 -14.4°
Maximum altitude 23:32:57 34° 91° (E) 1,030 4.2 -15.1°
Enters shadow 23:35:18 20° 40° (NE) 1,444 5.0 -15.5°
